Date String (YYYY-MM-DD hh:mm:ss) UTC,Instrument flags,Ambient pressure (hPa),Sample flow (lpm),Bypass flow (lpm),Sample temperature (°C),Ambient temperature (°C),ASC tube jacket temperature (°C),LED temperature (°C),Box temperature (°C),Sample RH (%),Span deviation,Mass concentration (μg/m³),Mass concentration (μg/m³),Mass concentration (μg/m³)
DateTimeUTC,F1_M11,P_M11,Q1_M11,Q2_M11,T1_M11,T2_M11,T3_M11,T4_M11,T5_M11,U1_M11,ZSPAN_M11,X0_M11,X2_M11,X1_M11
2021-11-12 12:00:00,,0831.0,5.00,0.00,22.3,21.6,00.0,31.3,24.0,12.6,0000.0,0010.25,0003.23,0002.01
2021-11-12 12:01:00,,0831.0,4.99,0.00,22.3,21.6,00.0,31.3,24.1,12.7,0000.0,0010.38,0003.28,0002.01
2021-11-12 12:02:00,,0831.0,5.00,0.00,22.3,21.5,00.0,31.3,24.0,12.7,0000.0,0010.48,0003.32,0002.01
2021-11-12 12:03:00,,0831.1,5.01,0.00,22.3,21.5,00.0,31.3,24.0,12.7,0000.0,0010.43,0003.35,0002.02
2021-11-12 12:04:00,,0831.0,5.00,0.00,22.3,21.5,00.0,31.3,24.1,12.7,0000.0,0010.09,0003.33,0002.03
2021-11-12 12:05:00,,0831.0,5.00,0.00,22.3,21.5,00.0,31.3,24.1,12.7,0000.0,0009.70,0003.33,0002.03
2021-11-12 12:06:00,,0831.1,5.00,0.00,22.3,21.5,00.0,31.3,24.1,12.7,0000.0,0010.39,0003.35,0002.02
2021-11-12 12:07:00,,0831.0,5.00,0.00,22.3,21.5,00.0,31.3,24.1,12.7,0000.0,0010.87,0003.32,0002.01
2021-11-12 12:08:00,,0831.0,5.00,0.00,22.3,21.5,00.0,31.3,24.1,12.7,0000.0,0012.23,0003.31,0002.00
2021-11-12 12:09:00,,0831.2,5.01,0.00,22.3,21.6,00.0,31.3,24.1,12.7,0000.0,0012.40,0003.26,0001.99
2021-11-12 12:10:00,,0831.2,5.01,0.00,22.4,22.1,00.0,31.3,24.2,12.7,0000.0,0013.20,0003.23,0001.98
2021-11-12 12:11:00,,0831.2,4.99,0.00,22.5,22.8,00.0,31.4,24.4,12.6,0000.0,0013.27,0003.24,0001.97
2021-11-12 12:12:00,,0831.1,5.01,0.00,22.6,23.0,00.0,31.4,24.5,12.6,0000.0,0013.29,0003.23,0001.98
2021-11-12 12:13:00,,0831.0,5.00,0.00,22.6,22.8,00.0,31.4,24.6,12.5,0000.0,0014.67,0003.21,0001.99
2021-11-12 12:14:00,,0831.0,5.01,0.00,22.6,22.7,00.0,31.4,24.5,12.5,0000.0,0014.70,0003.21,0002.01
2021-11-12 12:15:00,,0831.0,4.98,0.00,22.6,22.5,00.0,31.5,24.5,12.4,0000.0,0014.75,0003.22,0002.03
2021-11-12 12:16:00,,0831.0,5.00,0.00,22.6,22.4,00.0,31.5,24.5,12.3,0000.0,0016.26,0003.26,0002.05
2021-11-12 12:17:00,,0831.1,5.01,0.00,22.7,22.3,00.0,31.5,24.5,12.3,0000.0,0016.42,0003.26,0002.08
2021-11-12 12:18:00,,0831.2,5.01,0.00,22.7,22.2,00.0,31.5,24.5,12.1,0000.0,0016.59,0003.29,0002.10
2021-11-12 12:19:00,,0831.2,4.99,0.00,22.6,22.2,00.0,31.5,24.5,12.1,0000.0,0014.99,0003.27,0002.12
2021-11-12 12:20:00,,0831.1,5.02,0.00,22.6,22.1,00.0,31.5,24.5,12.0,0000.0,0014.26,0003.30,0002.13
2021-11-12 12:21:00,,0831.1,4.99,0.00,22.6,22.1,00.0,31.5,24.5,12.1,0000.0,0013.16,0003.34,0002.16
2021-11-12 12:22:00,,0831.2,5.00,0.00,22.6,22.0,00.0,31.5,24.4,12.2,0000.0,0013.54,0003.36,0002.18
2021-11-12 12:23:00,,0831.2,5.00,0.00,22.6,22.0,00.0,31.5,24.4,12.2,0000.0,0013.71,0003.36,0002.18
2021-11-12 12:24:00,,0831.1,5.00,0.00,22.6,21.9,00.0,31.5,24.4,12.3,0000.0,0012.90,0003.37,0002.18
2021-11-12 12:25:00,,0831.1,4.99,0.00,22.6,21.9,00.0,31.6,24.4,12.2,0000.0,0012.41,0003.37,0002.17
2021-11-12 12:26:00,,0831.1,5.00,0.00,22.6,21.9,00.0,31.6,24.3,12.2,0000.0,0012.34,0003.36,0002.15
2021-11-12 12:27:00,,0831.1,5.01,0.00,22.6,21.9,00.0,31.6,24.3,12.2,0000.0,0010.82,0003.31,0002.12
2021-11-12 12:28:00,,0831.1,4.99,0.00,22.6,21.8,00.0,31.6,24.3,12.2,0000.0,0010.49,0003.28,0002.10
2021-11-12 12:29:00,,0831.1,5.00,0.00,22.5,21.8,00.0,31.6,24.3,12.0,0000.0,0009.15,0003.21,0002.07
2021-11-12 12:30:00,,0831.2,5.00,0.00,22.5,21.8,00.0,31.5,24.2,11.9,0000.0,0008.86,0003.22,0002.05
2021-11-12 12:31:00,,0831.2,4.99,0.00,22.5,21.7,00.0,31.5,24.2,11.9,0000.0,0008.47,0003.19,0002.04
2021-11-12 12:32:00,,0831.2,5.01,0.00,22.5,21.7,00.0,31.5,24.2,11.8,0000.0,0008.32,0003.15,0002.01
2021-11-12 12:33:00,,0831.1,5.00,0.00,22.5,21.7,00.0,31.5,24.2,11.8,0000.0,0008.46,0003.14,0001.99
2021-11-12 12:34:00,,0831.0,4.98,0.00,22.4,21.7,00.0,31.5,24.2,11.8,0000.0,0008.34,0003.12,0001.96
2021-11-12 12:35:00,,0831.1,5.00,0.00,22.4,21.6,00.0,31.5,24.1,11.8,0000.0,0007.88,0003.06,0001.95
2021-11-12 12:36:00,,0831.2,5.01,0.00,22.4,21.6,00.0,31.5,24.1,11.7,0000.0,0007.67,0002.97,0001.95
2021-11-12 12:37:00,,0831.2,4.99,0.00,22.4,21.6,00.0,31.5,24.1,11.5,0000.0,0007.55,0002.91,0001.95
2021-11-12 12:38:00,,0831.2,5.00,0.00,22.4,21.6,00.0,31.5,24.1,11.5,0000.0,0007.58,0002.91,0001.94
2021-11-12 12:39:00,,0831.2,5.00,0.00,22.4,21.6,00.0,31.5,24.1,11.6,0000.0,0007.42,0002.92,0001.93
2021-11-12 12:40:00,,0831.2,4.99,0.00,22.4,21.5,00.0,31.4,24.1,11.5,0000.0,0007.64,0002.99,0001.92
2021-11-12 12:41:00,,0831.2,5.01,0.00,22.4,21.5,00.0,31.4,24.1,11.5,0000.0,0007.75,0003.05,0001.93
2021-11-12 12:42:00,,0831.2,5.00,0.00,22.3,21.5,00.0,31.4,24.1,11.4,0000.0,0007.75,0003.09,0001.94
2021-11-12 12:43:00,,0831.2,4.99,0.00,22.3,21.5,00.0,31.4,24.1,11.4,0000.0,0007.92,0003.14,0001.96
2021-11-12 12:44:00,,0831.2,5.01,0.00,22.3,21.5,00.0,31.4,24.1,11.3,0000.0,0007.33,0003.12,0001.96
2021-11-12 12:45:00,,0831.2,5.01,0.00,22.3,21.5,00.0,31.4,24.0,11.3,0000.0,0008.32,0003.17,0001.97
2021-11-12 12:46:00,,0831.2,4.99,0.00,22.4,21.9,00.0,31.4,24.1,11.3,0000.0,0008.65,0003.24,0001.99
2021-11-12 12:47:00,,0831.2,5.00,0.00,22.5,22.7,00.0,31.4,24.3,11.2,0000.0,0008.84,0003.25,0001.99
2021-11-12 12:48:00,,0831.2,4.99,0.00,22.6,23.1,00.0,31.5,24.5,11.1,0000.0,0009.73,0003.24,0001.98
2021-11-12 12:49:00,,0831.2,5.00,0.00,22.6,22.9,00.0,31.5,24.6,11.1,0000.0,0010.48,0003.23,0001.97
2021-11-12 12:50:00,,0831.2,5.00,0.00,22.6,22.7,00.0,31.5,24.6,11.1,0000.0,0011.57,0003.24,0001.99
2021-11-12 12:51:00,,0831.2,5.00,0.00,22.6,22.6,00.0,31.5,24.5,11.2,0000.0,0011.68,0003.24,0002.01
2021-11-12 12:52:00,,0831.2,5.00,0.00,22.6,22.4,00.0,31.5,24.5,11.2,0000.0,0011.58,0003.23,0002.02
2021-11-12 12:53:00,,0831.2,5.02,0.00,22.6,22.3,00.0,31.5,24.5,11.2,0000.0,0011.35,0003.22,0002.01
2021-11-12 12:54:00,,0831.2,4.99,0.00,22.6,22.2,00.0,31.5,24.4,11.2,0000.0,0011.18,0003.20,0002.00
2021-11-12 12:55:00,,0831.2,5.00,0.00,22.6,22.1,00.0,31.5,24.4,11.2,0000.0,0011.19,0003.20,0001.99
2021-11-12 12:56:00,,0831.2,5.01,0.00,22.6,22.0,00.0,31.5,24.4,11.3,0000.0,0010.03,0003.15,0001.99
2021-11-12 12:57:00,,0831.2,4.99,0.00,22.6,22.0,00.0,31.5,24.4,11.3,0000.0,0010.08,0003.12,0001.98
2021-11-12 12:58:00,,0831.2,5.01,0.00,22.6,21.9,00.0,31.5,24.3,11.3,0000.0,0010.06,0003.12,0001.97
2021-11-12 12:59:00,,0831.2,4.99,0.00,22.6,21.9,00.0,31.5,24.3,11.4,0000.0,0009.35,0003.17,0001.98
